Hourly Weather Alice Springs

Today, 1 December, Tuesday

Time Temperature Precipitation Wind Pressure Humidity
00:00 +33°C° 0 mm 5 mps 705 mmHg 36%
01:00 +32°C° 0 mm 4 mps 705 mmHg 39%
02:00 +30°C° 0 mm 3 mps 706 mmHg 42%
03:00 +30°C° 0 mm 3 mps 706 mmHg 44%
04:00 +30°C° 0 mm 4 mps 706 mmHg 45%
05:00 +29°C° 0 mm 5 mps 707 mmHg 45%
06:00 +29°C° 0 mm 6 mps 708 mmHg 46%
07:00 +32°C° 0 mm 6 mps 708 mmHg 43%
08:00 +33°C° 0 mm 7 mps 709 mmHg 39%
09:00 +34°C° 0 mm 4 mps 709 mmHg 37%
10:00 +35°C° 0 mm 5 mps 709 mmHg 34%
11:00 +37°C° 0 mm 5 mps 709 mmHg 31%
12:00 +40°C° 0 mm 6 mps 709 mmHg 28%
13:00 +40°C° 0 mm 6 mps 708 mmHg 27%
14:00 +40°C° 0 mm 7 mps 708 mmHg 26%
15:00 +40°C° 0 mm 8 mps 707 mmHg 27%
16:00 +38°C° 0.1 mm 8 mps 708 mmHg 30%
17:00 +37°C° 0.1 mm 9 mps 708 mmHg 33%
18:00 +35°C° 0.1 mm 9 mps 708 mmHg 37%
19:00 +33°C° 0.7 mm 9 mps 708 mmHg 38%
20:00 +32°C° 0.7 mm 8 mps 709 mmHg 40%
21:00 +29°C° 0.7 mm 8 mps 709 mmHg 42%
22:00 +28°C° 0 mm 8 mps 709 mmHg 41%
23:00 +28°C° 0 mm 9 mps 709 mmHg 40%

Tomorrow, 2 December, Wednesday

Time Temperature Precipitation Wind Pressure Humidity
00:00 +27°C° 0 mm 9 mps 709 mmHg 39%
01:00 +26°C° 0 mm 9 mps 710 mmHg 39%
02:00 +26°C° 0 mm 9 mps 710 mmHg 38%
03:00 +24°C° 0 mm 9 mps 710 mmHg 38%
04:00 +24°C° 0 mm 9 mps 710 mmHg 36%
05:00 +23°C° 0 mm 10 mps 711 mmHg 35%
06:00 +23°C° 0 mm 10 mps 711 mmHg 34%
07:00 +24°C° 0 mm 11 mps 711 mmHg 31%
08:00 +26°C° 0 mm 11 mps 712 mmHg 28%
09:00 +28°C° 0 mm 11 mps 712 mmHg 24%
10:00 +29°C° 0 mm 11 mps 712 mmHg 24%
11:00 +32°C° 0 mm 11 mps 711 mmHg 23%
12:00 +34°C° 0 mm 10 mps 711 mmHg 22%
13:00 +34°C° 0 mm 10 mps 710 mmHg 21%
14:00 +36°C° 0 mm 10 mps 710 mmHg 20%
15:00 +37°C° 0 mm 10 mps 709 mmHg 19%
16:00 +36°C° 0 mm 10 mps 709 mmHg 20%
17:00 +34°C° 0 mm 10 mps 709 mmHg 20%
18:00 +33°C° 0 mm 10 mps 710 mmHg 21%
19:00 +32°C° 0 mm 9 mps 710 mmHg 22%
20:00 +31°C° 0 mm 8 mps 710 mmHg 23%
21:00 +29°C° 0 mm 7 mps 710 mmHg 24%
22:00 +28°C° 0 mm 7 mps 710 mmHg 25%
23:00 +27°C° 0 mm 7 mps 710 mmHg 25%

Day after tomorrow, 3 December, Thursday

Time Temperature Precipitation Wind Pressure Humidity
00:00 +26°C° 0 mm 7 mps 710 mmHg 26%
01:00 +26°C° 0 mm 7 mps 710 mmHg 26%
02:00 +24°C° 0 mm 7 mps 709 mmHg 27%
03:00 +23°C° 0 mm 7 mps 709 mmHg 27%
04:00 +23°C° 0 mm 7 mps 709 mmHg 27%
05:00 +23°C° 0 mm 7 mps 710 mmHg 27%
06:00 +23°C° 0 mm 7 mps 710 mmHg 27%
07:00 +26°C° 0 mm 8 mps 710 mmHg 25%
08:00 +29°C° 0 mm 9 mps 711 mmHg 22%
09:00 +32°C° 0 mm 10 mps 711 mmHg 20%
10:00 +34°C° 0 mm 9 mps 711 mmHg 18%
11:00 +37°C° 0 mm 9 mps 710 mmHg 17%
12:00 +39°C° 0 mm 9 mps 710 mmHg 15%
13:00 +40°C° 0 mm 8 mps 709 mmHg 15%
14:00 +41°C° 0 mm 6 mps 709 mmHg 14%
15:00 +41°C° 0 mm 5 mps 708 mmHg 14%
16:00 +41°C° 0 mm 6 mps 708 mmHg 14%
17:00 +40°C° 0 mm 6 mps 708 mmHg 14%
18:00 +40°C° 0 mm 7 mps 708 mmHg 15%
19:00 +38°C° 0 mm 7 mps 708 mmHg 16%
20:00 +36°C° 0 mm 6 mps 708 mmHg 17%
21:00 +34°C° 0 mm 6 mps 708 mmHg 18%
22:00 +33°C° 0 mm 6 mps 708 mmHg 19%
23:00 +32°C° 0 mm 6 mps 708 mmHg 20%

4 December, Friday

Time Temperature Precipitation Wind Pressure Humidity
00:00 +30°C° 0 mm 6 mps 708 mmHg 22%
01:00 +30°C° 0 mm 6 mps 708 mmHg 22%
02:00 +29°C° 0 mm 5 mps 708 mmHg 23%
03:00 +28°C° 0 mm 5 mps 707 mmHg 24%
04:00 +28°C° 0 mm 5 mps 708 mmHg 25%
05:00 +28°C° 0 mm 4 mps 708 mmHg 25%
06:00 +28°C° 0 mm 4 mps 708 mmHg 26%
07:00 +30°C° 0 mm 5 mps 708 mmHg 24%
08:00 +34°C° 0 mm 5 mps 709 mmHg 21%
09:00 +36°C° 0 mm 6 mps 709 mmHg 19%
10:00 +39°C° 0 mm 5 mps 709 mmHg 17%
11:00 +41°C° 0 mm 4 mps 708 mmHg 16%
12:00 +43°C° 0 mm 3 mps 707 mmHg 14%
13:00 +43°C° 0 mm 3 mps 707 mmHg 13%
14:00 +44°C° 0 mm 3 mps 706 mmHg 13%
15:00 +44°C° 0 mm 3 mps 705 mmHg 12%
16:00 +44°C° 0 mm 3 mps 705 mmHg 13%
17:00 +43°C° 0 mm 3 mps 705 mmHg 14%
18:00 +42°C° 0 mm 4 mps 705 mmHg 15%
19:00 +41°C° 0 mm 4 mps 705 mmHg 16%
20:00 +40°C° 0 mm 4 mps 705 mmHg 18%
21:00 +38°C° 0 mm 4 mps 705 mmHg 19%
22:00 +37°C° 0 mm 4 mps 705 mmHg 22%
23:00 +37°C° 0 mm 4 mps 705 mmHg 24%

5 December, Saturday

Time Temperature Precipitation Wind Pressure Humidity
00:00 +36°C° 0 mm 4 mps 705 mmHg 26%
01:00 +36°C° 0 mm 4 mps 705 mmHg 28%
02:00 +35°C° 0 mm 4 mps 704 mmHg 29%
03:00 +34°C° 0 mm 4 mps 704 mmHg 31%
04:00 +34°C° 0 mm 5 mps 704 mmHg 32%
05:00 +34°C° 0 mm 5 mps 705 mmHg 32%
06:00 +34°C° 0 mm 5 mps 705 mmHg 33%
07:00 +36°C° 0 mm 6 mps 706 mmHg 29%
08:00 +40°C° 0 mm 7 mps 706 mmHg 24%
09:00 +43°C° 0 mm 8 mps 707 mmHg 20%
10:00 +44°C° 0 mm 8 mps 706 mmHg 19%
11:00 +44°C° 0 mm 7 mps 706 mmHg 19%
12:00 +44°C° 0 mm 7 mps 706 mmHg 18%
13:00 +41°C° 0.4 mm 6 mps 705 mmHg 21%
14:00 +40°C° 0.4 mm 5 mps 704 mmHg 24%
15:00 +37°C° 0.4 mm 4 mps 704 mmHg 26%
16:00 +37°C° 0.2 mm 3 mps 704 mmHg 25%
17:00 +38°C° 0.2 mm 2 mps 704 mmHg 25%
18:00 +37°C° 0.2 mm 1 mps 704 mmHg 24%
19:00 +36°C° 0.1 mm 1 mps 705 mmHg 27%
20:00 +35°C° 0.1 mm 1 mps 705 mmHg 30%
21:00 +33°C° 0.1 mm 1 mps 706 mmHg 33%
22:00 +34°C° 0.1 mm 3 mps 706 mmHg 32%
23:00 +33°C° 0.1 mm 5 mps 706 mmHg 31%

6 December, Sunday

Time Temperature Precipitation Wind Pressure Humidity
00:00 +32°C° 0.1 mm 8 mps 707 mmHg 30%
01:00 +30°C° 0.1 mm 7 mps 707 mmHg 32%
02:00 +29°C° 0.1 mm 6 mps 706 mmHg 33%
03:00 +28°C° 0.1 mm 6 mps 706 mmHg 34%
04:00 +27°C° 0.3 mm 7 mps 707 mmHg 34%
05:00 +26°C° 0.3 mm 8 mps 708 mmHg 34%
06:00 +24°C° 0.3 mm 9 mps 708 mmHg 35%
07:00 +24°C° 0.2 mm 9 mps 709 mmHg 33%
08:00 +26°C° 0.2 mm 8 mps 709 mmHg 32%
09:00 +26°C° 0.2 mm 8 mps 710 mmHg 30%
10:00 +28°C° 0 mm 8 mps 709 mmHg 29%
11:00 +29°C° 0 mm 7 mps 709 mmHg 27%
12:00 +32°C° 0 mm 7 mps 709 mmHg 25%
13:00 +32°C° 0 mm 6 mps 709 mmHg 25%
14:00 +33°C° 0 mm 6 mps 708 mmHg 25%
15:00 +33°C° 0 mm 5 mps 708 mmHg 24%
16:00 +33°C° 0 mm 5 mps 708 mmHg 25%
17:00 +32°C° 0 mm 6 mps 708 mmHg 26%
18:00 +30°C° 0 mm 6 mps 708 mmHg 27%
19:00 +30°C° 0 mm 6 mps 708 mmHg 27%
20:00 +29°C° 0 mm 6 mps 709 mmHg 27%
21:00 +29°C° 0 mm 6 mps 709 mmHg 28%
22:00 +28°C° 0 mm 6 mps 709 mmHg 26%
23:00 +28°C° 0 mm 6 mps 709 mmHg 24%
Show more